| time (UTC) | temp C | wind direction | speed KPH | gust KPH | rain 1hr cm | rain 24hr cm | rain mn cm | humidity % | barometer mb |
| 20260901140027 | 28 | 137 | 8.0 | 14.5 | 0.00 | 0.00 | 0.00 | 55 | 1015.7 |
| 20260901134526 | 28 | 152 | 4.8 | 17.7 | 0.00 | 0.00 | 0.00 | 56 | 1015.7 |
| 20260901133025 | 28 | 109 | 4.8 | 17.7 | 0.00 | 0.00 | 0.00 | 57 | 1015.9 |
| 20260901131525 | 28 | 178 | 6.4 | 14.5 | 0.00 | 0.00 | 0.00 | 57 | 1016.1 |
| 20260901130023 | 28 | 42 | 3.2 | 16.1 | 0.00 | 0.00 | 0.00 | 59 | 1016.2 |
| 20260901124522 | 28 | 163 | 6.4 | 12.9 | 0.00 | 0.00 | 0.00 | 58 | 1016.5 |
| 20260901123031 | 28 | 32 | 1.6 | 9.7 | 0.00 | 0.00 | 0.00 | 60 | 1016.6 |
| 20260901121521 | 27 | 61 | 1.6 | 14.5 | 0.00 | 0.00 | 0.00 | 61 | 1016.7 |
| 20260901120021 | 27 | 51 | 3.2 | 9.7 | 0.00 | 0.00 | 0.00 | 62 | 1016.8 |
| 20260901114518 | 27 | 118 | 4.8 | 14.5 | 0.00 | 0.00 | 0.00 | 62 | 1016.9 |
| 20260901113018 | 27 | 103 | 3.2 | 9.7 | 0.00 | 0.00 | 0.00 | 60 | 1016.9 |
| 20260901111517 | 26 | 139 | 6.4 | 14.5 | 0.00 | 0.00 | 0.00 | 62 | 1017.0 |
| 20260901110117 | 26 | 136 | 8.0 | 14.5 | 0.00 | 0.00 | 0.00 | 61 | 1017.1 |
| 20260901104515 | 26 | 148 | 4.8 | 17.7 | 0.00 | 0.00 | 0.00 | 67 | 1017.1 |
| 20260901103013 | 26 | 132 | 8.0 | 16.1 | 0.00 | 0.00 | 0.00 | 67 | 1017.1 |
| 20260901101513 | 26 | 223 | 3.2 | 9.7 | 0.00 | 0.00 | 0.00 | 70 | 1017.2 |
| 20260901100006 | 25 | 67 | 0.0 | 6.4 | 0.00 | 0.00 | 0.00 | 73 | 1017.3 |
| 20260901094504 | 25 | 113 | 3.2 | 6.4 | 0.00 | 0.00 | 0.00 | 74 | 1017.3 |
| 20260901093003 | 25 | 89 | 3.2 | 11.3 | 0.00 | 0.00 | 0.00 | 74 | 1017.3 |
| 20260901091501 | 25 | 93 | 4.8 | 6.4 | 0.00 | 0.00 | 0.00 | 74 | 1017.3 |
| 20260901084622 | 24 | 80 | 6.4 | 16.1 | 0.00 | 0.00 | 0.00 | 75 | 1017.2 |
| 20260901083057 | 24 | 71 | 4.8 | 12.9 | 0.00 | 0.00 | 0.00 | 75 | 1017.2 |
| 20260901081556 | 24 | 114 | 4.8 | 12.9 | 0.00 | 0.00 | 0.00 | 74 | 1017.1 |
| 20260901080109 | 25 | 109 | 8.0 | 16.1 | 0.00 | 0.00 | 0.00 | 72 | 1017.0 |
| 20260901074604 | 23 | 52 | 11.3 | 22.5 | 0.00 | 0.00 | 0.00 | 73 | 1016.7 |
| 20260901073050 | 23 | 53 | 4.8 | 9.7 | 0.00 | 0.00 | 0.00 | 71 | 1016.8 |
| 20260901071542 | 23 | 31 | 1.6 | 9.7 | 0.00 | 0.00 | 0.00 | 71 | 1016.8 |
| 20260901070040 | 23 | 124 | 3.2 | 14.5 | 0.00 | 0.00 | 0.00 | 67 | 1016.8 |
| 20260901064539 | 23 | 52 | 4.8 | 11.3 | 0.00 | 0.00 | 0.00 | 62 | 1016.6 |
| 20260901063036 | 23 | 49 | 1.6 | 4.8 | 0.00 | 0.00 | 0.00 | 58 | 1016.6 |
| 20260901061532 | 22 | 49 | 1.6 | 8.0 | 0.00 | 0.00 | 0.00 | 58 | 1016.4 |
| 20260901060037 | 22 | 39 | 3.2 | 9.7 | 0.00 | 0.00 | 0.00 | 57 | 1016.0 |
| 20260901054522 | 21 | 26 | 6.4 | 12.9 | 0.00 | 0.00 | 0.00 | 57 | 1015.8 |
| 20260901053018 | 22 | 30 | 6.4 | 14.5 | 0.00 | 0.00 | 0.00 | 55 | 1015.6 |
| 20260901051515 | 22 | 42 | 9.7 | 14.5 | 0.00 | 0.00 | 0.00 | 54 | 1015.5 |
| 20260901050012 | 21 | 60 | 4.8 | 16.1 | 0.00 | 0.00 | 0.00 | 56 | 1015.2 |
| 20260901044508 | 20 | 32 | 6.4 | 9.7 | 0.00 | 0.00 | 0.00 | 62 | 1015.0 |
| 20260901043008 | 19 | 30 | 3.2 | 6.4 | 0.00 | 0.00 | 0.00 | 65 | 1014.9 |
| 20260901041507 | 19 | 338 | 4.8 | 8.0 | 0.00 | 0.00 | 0.00 | 66 | 1014.7 |
| 20260901040005 | 20 | 24 | 1.6 | 4.8 | 0.00 | 0.00 | 0.00 | 64 | 1014.5 |
| 20260901034502 | 20 | 28 | 1.6 | 4.8 | 0.00 | 0.00 | 0.00 | 64 | 1014.4 |
| 20260901033001 | 20 | 336 | 3.2 | 6.4 | 0.00 | 0.00 | 0.00 | 63 | 1014.1 |
| 20260901031600 | 20 | 46 | 1.6 | 4.8 | 0.00 | 0.00 | 0.00 | 64 | 1014.0 |
| 20260901030106 | 20 | 350 | 3.2 | 6.4 | 0.00 | 0.00 | 0.00 | 68 | 1013.9 |
| 20260901024600 | 19 | 351 | 4.8 | 9.7 | 0.00 | 0.00 | 0.00 | 72 | 1013.8 |
| 20260901023102 | 18 | 5 | 3.2 | 6.4 | 0.00 | 0.00 | 0.00 | 75 | 1013.9 |
| 20260901021554 | 19 | 28 | 3.2 | 6.4 | 0.00 | 0.00 | 0.00 | 75 | 1014.0 |
| 20260901020055 | 20 | 144 | 0.0 | 0.0 | 0.00 | 0.00 | 0.00 | 75 | 1014.1 |
| 20260901014549 | 20 | 144 | 0.0 | 0.0 | 0.00 | 0.00 | 0.00 | 75 | 1014.0 |
| 20260901013056 | 20 | 147 | 0.0 | 0.0 | 0.00 | 0.00 | 0.00 | 75 | 1014.1 |
| 20260901011548 | 20 | 147 | 0.0 | 0.0 | 0.00 | 0.00 | 0.00 | 74 | 1014.1 |
| 20260901010100 | 20 | 147 | 0.0 | 4.8 | 0.00 | 0.00 | 0.00 | 75 | 1014.0 |
| 20260901004542 | 21 | 147 | 3.2 | 6.4 | 0.00 | 0.00 | 0.00 | 71 | 1013.8 |
| 20260901003040 | 22 | 332 | 3.2 | 8.0 | 0.00 | 0.00 | 0.00 | 68 | 1013.6 |
| 20260901001539 | 22 | 360 | 4.8 | 8.0 | 0.00 | 0.00 | 0.00 | 70 | 1013.5 |
| 20260901000040 | 22 | 9 | 3.2 | 6.4 | 0.00 | 0.00 | 0.00 | 74 | 1013.5 |
| 20260831234536 | 22 | 337 | 4.8 | 9.7 | 0.00 | 0.00 | 0.00 | 76 | 1013.5 |
| 20260831233042 | 22 | 30 | 6.4 | 11.3 | 0.00 | 0.00 | 0.00 | 77 | 1013.5 |
| 20260831231537 | 22 | 335 | 3.2 | 6.4 | 0.00 | 0.00 | 0.00 | 78 | 1013.5 |
| 20260831230032 | 22 | 333 | 1.6 | 8.0 | 0.00 | 0.00 | 0.00 | 79 | 1013.4 |
| 20260831224531 | 22 | 336 | 4.8 | 8.0 | 0.00 | 0.00 | 0.00 | 79 | 1013.3 |
| 20260831223030 | 22 | 350 | 1.6 | 8.0 | 0.00 | 0.00 | 0.00 | 80 | 1013.3 |
| 20260831221534 | 22 | 37 | 3.2 | 6.4 | 0.00 | 0.00 | 0.00 | 79 | 1013.2 |
| 20260831220026 | 23 | 40 | 6.4 | 8.0 | 0.00 | 0.00 | 0.00 | 77 | 1013.3 |
| 20260831214524 | 23 | 39 | 1.6 | 4.8 | 0.00 | 0.00 | 0.00 | 76 | 1013.3 |
| 20260831213024 | 23 | 39 | 3.2 | 8.0 | 0.00 | 0.00 | 0.00 | 76 | 1013.1 |
| 20260831211523 | 23 | 42 | 6.4 | 9.7 | 0.00 | 0.00 | 0.00 | 75 | 1013.0 |
| 20260831210022 | 23 | 38 | 3.2 | 6.4 | 0.00 | 0.00 | 0.00 | 75 | 1012.9 |
| 20260831204522 | 23 | 40 | 3.2 | 8.0 | 0.00 | 0.00 | 0.00 | 75 | 1012.8 |
| 20260831203022 | 23 | 19 | 4.8 | 8.0 | 0.00 | 0.00 | 0.00 | 75 | 1012.8 |
| 20260831201524 | 23 | 41 | 4.8 | 8.0 | 0.00 | 0.00 | 0.00 | 75 | 1012.7 |
| 20260831200020 | 24 | 348 | 3.2 | 6.4 | 0.00 | 0.00 | 0.00 | 75 | 1012.6 |
| 20260831194521 | 24 | 26 | 4.8 | 9.7 | 0.00 | 0.00 | 0.00 | 74 | 1012.4 |
| 20260831193031 | 24 | 37 | 6.4 | 9.7 | 0.00 | 0.00 | 0.00 | 73 | 1012.3 |
| 20260831191519 | 25 | 38 | 3.2 | 6.4 | 0.00 | 0.00 | 0.00 | 72 | 1012.3 |
| 20260831190020 | 25 | 33 | 4.8 | 8.0 | 0.00 | 0.00 | 0.00 | 70 | 1012.1 |
| 20260831184519 | 26 | 333 | 0.0 | 4.8 | 0.00 | 0.00 | 0.00 | 67 | 1011.9 |
| 20260831183019 | 27 | 333 | 0.0 | 0.0 | 0.00 | 0.00 | 0.00 | 64 | 1011.7 |
| 20260831181518 | 27 | 333 | 1.6 | 3.2 | 0.00 | 0.00 | 0.00 | 62 | 1011.6 |
| 20260831180021 | 28 | 333 | 0.0 | 3.2 | 0.00 | 0.00 | 0.00 | 59 | 1011.5 |
| 20260831174520 | 29 | 333 | 3.2 | 9.7 | 0.00 | 0.00 | 0.00 | 56 | 1011.4 |
| 20260831173018 | 29 | 310 | 3.2 | 6.4 | 0.00 | 0.00 | 0.00 | 55 | 1011.4 |
| 20260831171519 | 30 | 32 | 1.6 | 6.4 | 0.00 | 0.00 | 0.00 | 53 | 1011.4 |
| 20260831170033 | 30 | 209 | 0.0 | 3.2 | 0.00 | 0.00 | 0.00 | 53 | 1011.4 |
| 20260831164520 | 30 | 280 | 3.2 | 8.0 | 0.00 | 0.00 | 0.00 | 52 | 1011.4 |
| 20260831163016 | 31 | 252 | 1.6 | 6.4 | 0.00 | 0.00 | 0.00 | 51 | 1011.5 |
| 20260831161512 | 31 | 251 | 1.6 | 8.0 | 0.00 | 0.00 | 0.00 | 52 | 1011.6 |
| 20260831160014 | 31 | 236 | 3.2 | 8.0 | 0.00 | 0.00 | 0.00 | 51 | 1011.7 |
| 20260831154526 | 31 | 224 | 3.2 | 8.0 | 0.00 | 0.00 | 0.00 | 51 | 1011.7 |
| 20260831153010 | 31 | 297 | 3.2 | 12.9 | 0.00 | 0.00 | 0.00 | 52 | 1011.8 |
| 20260831151509 | 31 | 296 | 4.8 | 16.1 | 0.00 | 0.00 | 0.00 | 52 | 1011.8 |
| 20260831150007 | 31 | 252 | 4.8 | 14.5 | 0.00 | 0.00 | 0.00 | 51 | 1012.0 |
| 20260831144506 | 31 | 196 | 9.7 | 16.1 | 0.00 | 0.00 | 0.00 | 51 | 1011.9 |
| 20260831143005 | 31 | 240 | 3.2 | 14.5 | 0.00 | 0.00 | 0.00 | 53 | 1012.0 |
| 20260831141503 | 31 | 242 | 8.0 | 12.9 | 0.00 | 0.00 | 0.00 | 53 | 1012.0 |